Content
SEND FEEDBACK

Daily
Averages
Monthly
Summary
United States of America

ARTESIA, NEW MEXICO


Home > North America > United States > New Mexico
Elevation: 3532 feet     Latitude: 32 51N     Longitude: 104 28W

WEATHER
 
SELECT A DAY
Number of Records: 424,934;   Date Range: 8/5/97 - 8/23/14
 
SHARE

PRINT THIS DATA

[ ← Previous Day ]
WEATHER ALMANAC - FEBRUARY 5, 2013
[ Next Day → ]
[ °C ]   °F
Weather ElementAverageHighLow
Temperature47.6 °F66.2 °F (2:15 pm)30.2 °F (6:35 am)
Dewpoint14.9 °F19.4 °F (9:35 am)10.4 °F (12:35 am)
Humidity29.5 %51 % (4:15 am)13 % (4:15 pm)
Barometer29.98 in30.05 in (10:15 am)29.93 in (2:55 pm)
Wind Speed4 mph10.4 mph (9:35 pm)
Weather ElementAverage
Visibility10 mi
Wind DirectionSSE (150.4 °)

Weather ElementTotal
Precipitation---
Heating Degree Days16.8 (Base 65)
Averaged from 67 records on February 5, 2013
WEATHER CONDITIONS BREAKOUT
WIND DIRECTION BREAKOUT
WEATHER BY HOUR - FEBRUARY 5, 2013
[ °C ]   °F
Local TimeTemperatureDewpointHumidityBarometerVisibilityWind DirectionWind SpeedGust SpeedPrecipitationEventsConditions
12:35 AM41.0 °F10.4 °F29 %29.99 in10.0 miEast (80°)8.1 mphClear
12:55 AM37.4 °F10.4 °F33 %29.99 in10.0 miCalmClear
1:15 AM39.2 °F10.4 °F31 %29.98 in10.0 miCalmClear
1:35 AM37.4 °F10.4 °F33 %29.99 in10.0 miNorth (360°)5.8 mphClear
1:55 AM37.4 °F10.4 °F33 %29.98 in10.0 miCalmClear
2:15 AM37.4 °F10.4 °F33 %29.98 in10.0 miCalmClear
2:35 AM35.6 °F10.4 °F35 %29.98 in10.0 miCalmClear
2:55 AM37.4 °F10.4 °F33 %29.97 in10.0 miCalmClear
3:15 AM37.4 °F10.4 °F33 %29.98 in10.0 miSSE (150°)5.8 mphClear
3:35 AM32.0 °F14.0 °F48 %29.97 in10.0 miSSW (210°)5.8 mphClear
3:55 AM32.0 °F14.0 °F48 %29.97 in10.0 miSSW (210°)5.8 mphClear
4:15 AM32.0 °F15.8 °F51 %29.97 in10.0 miSW (220°)4.6 mphClear
4:35 AM32.0 °F14.0 °F48 %29.97 in10.0 miCalmClear
5:15 AM32.0 °F14.0 °F48 %29.97 in10.0 miCalmClear
5:55 AM32.0 °F14.0 °F48 %29.98 in10.0 miSSW (210°)9.2 mphClear
6:15 AM32.0 °F14.0 °F48 %29.98 in10.0 miSW (230°)5.8 mphClear
6:35 AM30.2 °F14.0 °F51 %29.99 in10.0 miWSW (240°)5.8 mphClear
6:55 AM30.2 °F14.0 °F51 %30.00 in10.0 miWNW (290°)4.6 mphClear
7:15 AM32.0 °F14.0 °F48 %30.01 in10.0 miNNW (340°)5.8 mphClear
7:35 AM32.0 °F15.8 °F51 %30.01 in10.0 miNW (320°)4.6 mphClear
7:55 AM37.4 °F15.8 °F41 %30.02 in10.0 miWest (260°)3.5 mphClear
8:15 AM41.0 °F17.6 °F39 %30.02 in10.0 miNNW (340°)4.6 mphClear
8:35 AM39.2 °F15.8 °F39 %30.03 in10.0 miNorth (350°)5.8 mphClear
8:55 AM41.0 °F17.6 °F39 %30.04 in10.0 miNW (320°)4.6 mphClear
9:15 AM44.6 °F17.6 °F34 %30.04 in10.0 miCalmClear
9:35 AM46.4 °F19.4 °F34 %30.04 in10.0 miNorth (10°)4.6 mphClear
9:55 AM48.2 °F19.4 °F32 %30.04 in10.0 miNorth (360°)5.8 mphClear
10:15 AM50.0 °F19.4 °F30 %30.05 in10.0 miNNW (340°)4.6 mphClear
10:35 AM53.6 °F19.4 °F26 %30.04 in10.0 miNNW (340°)4.6 mphClear
10:55 AM55.4 °F19.4 °F25 %30.03 in10.0 miEast (80°)3.5 mphClear
11:15 AM55.4 °F19.4 °F25 %30.03 in10.0 miNE (50°)3.5 mphClear
11:35 AM57.2 °F19.4 °F23 %30.02 in10.0 miEast (80°)3.5 mphClear
11:55 AM59.0 °F19.4 °F22 %30.01 in10.0 miEast (100°)3.5 mphClear
12:15 PM60.8 °F19.4 °F20 %30.00 in10.0 miENE (60°)5.8 mphClear
12:35 PM62.6 °F19.4 °F19 %29.99 in10.0 miENE (60°)4.6 mphClear
12:55 PM62.6 °F19.4 °F19 %29.98 in10.0 miENE (70°)3.5 mphClear
1:15 PM62.6 °F19.4 °F19 %29.97 in10.0 miNorth (360°)3.5 mphClear
1:35 PM64.4 °F19.4 °F18 %29.96 in10.0 miENE (60°)3.5 mphClear
1:55 PM64.4 °F17.6 °F16 %29.96 in10.0 miCalmClear
2:15 PM66.2 °F17.6 °F15 %29.95 in10.0 miNorth (360°)5.8 mphClear
2:35 PM66.2 °F17.6 °F15 %29.94 in10.0 miCalmClear
2:55 PM66.2 °F15.8 °F14 %29.93 in10.0 miNNE (30°)9.2 mphClear
3:15 PM66.2 °F15.8 °F14 %29.93 in10.0 miNE (40°)4.6 mphClear
3:35 PM66.2 °F15.8 °F14 %29.93 in10.0 miCalmClear
3:55 PM66.2 °F15.8 °F14 %29.93 in10.0 miENE (60°)3.5 mphClear
4:15 PM66.2 °F14.0 °F13 %29.93 in10.0 miNE (50°)3.5 mphClear
4:35 PM66.2 °F14.0 °F13 %29.93 in10.0 miCalmClear
4:55 PM66.2 °F14.0 °F13 %29.93 in10.0 miCalmClear
5:15 PM64.4 °F14.0 °F14 %29.94 in10.0 miCalmClear
5:35 PM62.6 °F15.8 °F16 %29.94 in10.0 miENE (70°)3.5 mphClear
5:55 PM60.8 °F15.8 °F17 %29.94 in10.0 miEast (90°)3.5 mphClear
6:15 PM59.0 °F14.0 °F17 %29.95 in10.0 miENE (60°)3.5 mphClear
6:55 PM53.6 °F14.0 °F21 %29.96 in10.0 miCalmClear
7:35 PM48.2 °F14.0 °F25 %29.96 in10.0 miCalmClear
7:55 PM48.2 °F14.0 °F25 %29.96 in10.0 miCalmClear
8:15 PM46.4 °F14.0 °F27 %29.96 in10.0 miWest (260°)3.5 mphClear
8:35 PM46.4 °F14.0 °F27 %29.97 in10.0 miWest (270°)9.2 mphClear
8:55 PM46.4 °F14.0 °F27 %29.97 in10.0 miWest (270°)9.2 mphClear
9:15 PM44.6 °F14.0 °F29 %29.98 in10.0 miWest (280°)9.2 mphClear
9:35 PM42.8 °F14.0 °F31 %29.98 in10.0 miWSW (250°)10.4 mphClear
9:55 PM41.0 °F12.2 °F31 %29.98 in10.0 miWest (260°)8.1 mphClear
10:15 PM41.0 °F12.2 °F31 %29.98 in10.0 miWest (260°)8.1 mphClear
10:35 PM41.0 °F12.2 °F31 %29.98 in10.0 miWest (280°)5.8 mphClear
10:55 PM39.2 °F12.2 °F33 %29.98 in10.0 miWNW (290°)8.1 mphClear
11:15 PM37.4 °F10.4 °F33 %29.98 in10.0 miWNW (300°)4.6 mphClear
11:35 PM39.2 °F10.4 °F31 %29.98 in10.0 miNW (320°)3.5 mphClear
11:55 PM39.2 °F10.4 °F31 %29.98 in10.0 miSouth (180°)3.5 mphClear
Hourly data recorded from KATS, located miles away from Artesia, New Mexico







STORIES FROM OUR PARTNERS